Location: Chiroubles
(46.1812°N, 4.6660°E)
Time: 06:28:09
(UTC+00:00)

Daily predictions for brighter satellites

Satellite Brightness Start Highest point End
(mag) Time Altitude Azimuth Time Altitude Azimuth Time Altitude Azimuth
Cosmos 1821 Rocket 4.0 19:11:30 10° S 19:17:34 64° E 19:23:45 10° NNE
Ariane Rocket 3.0 19:13:04 10° SSE 19:18:07 84° ENE 19:23:12 10° NNW
Cosmos 1812 2.8 19:16:45 10° N 19:20:37 88° W 19:24:27 10° S
Cosmos 1805 Rocket 3.6 19:16:12 10° S 19:20:39 89° E 19:25:09 10° N
Cosmos 407 Rocket 3.6 19:17:35 10° SSW 19:22:54 89° WNW 19:28:12 10° NNE
SJ-6B 2.8 19:22:03 10° SSE 19:26:05 82° ENE 19:30:01 10° N
Cosmos 1862 3.9 19:23:00 10° SSW 19:27:01 64° W 19:31:04 10° N
Cosmos 1190 Rocket 4.0 19:21:50 10° SSW 19:27:06 82° ESE 19:32:27 10° NNE
NOSS 2 (A) 4.4 19:25:31 10° NNW 19:28:04 51° NE 19:30:20 10° SE
deb Kosmos-1763 4.0 19:24:48 10° SSW 19:28:24 71° ESE 19:32:04 10° NNE
Cosmos 1140 Rocket 3.5 19:23:42 10° SSW 19:28:56 82° ESE 19:34:13 10° NNE
FALCON 9 DEB 4.4 19:26:21 10° W 19:29:43 44° NNW 19:33:05 10° NE
Resurs 1-3 3.9 19:26:59 10° SE 19:31:12 49° ENE 19:35:27 10° N
OBJECT-B 1.1 19:30:35 10° SSE 19:33:46 49° ENE 19:36:58 10° N
Cosmos 1441 Rocket 3.9 19:30:32 10° SSW 19:34:14 58° WNW 19:37:57 10° N
Cosmos 2084 Rocket 4.4 19:30:58 10° S 19:34:23 25° ESE 19:37:53 10° ENE
IRIDIUM 106 4.4 19:29:24 10° S 19:34:37 89° W 19:39:53 10° N
Cosmos 1633 Rocket 3.2 19:32:37 10° S 19:36:55 54° E 19:41:14 10° NNE
Cosmos 1184 Rocket 3.3 19:34:42 10° SSE 19:37:47 38° E 19:40:53 10° NNE
SL-08 RB Rocket 4.3 19:34:27 10° S 19:39:03 60° W 19:43:41 10° NNW
Cosmos 921 Rocket 3.3 19:37:11 10° N 19:41:15 46° ENE 19:45:04 11° SE
Cosmos 2123 Rocket 4.1 19:36:27 10° N 19:42:39 63° E 19:48:51 10° SSE
Cosmos 2239 Rocket 4.5 19:36:42 10° S 19:42:50 84° E 19:49:02 10° N
Meteor 1-27 Rocket 4.1 19:42:00 10° NNW 19:47:57 77° W 19:53:53 10° S
Cosmos 1605 Rocket 4.3 19:46:06 10° SSE 19:51:50 45° E 19:57:35 10° NNE
Okean 1 4.4 19:50:05 10° NNE 19:53:40 29° ENE 19:56:08 16° SE
Cosmos 1707 Rocket 4.0 19:49:39 10° NNW 19:53:57 63° W 19:58:12 10° S
CZ-2C R/B 2.7 19:49:31 10° NNE 19:54:44 80° WNW 19:59:59 10° SSW
NOSS 3-2 (A) 3.3 19:49:53 10° SSW 19:55:33 81° SE 20:02:05 10° NE
Cosmos 192 4.4 19:51:42 10° NNW 19:56:39 83° WSW 20:01:34 10° SSE
Cosmos 2219 Rocket 4.4 19:55:52 10° NNE 19:57:47 12° NNE 19:59:42 10° NE
USA 267 3.9 19:53:06 10° ENE 19:58:41 29° SE 20:04:14 10° S
SL-16 R/B 2.7 19:56:55 10° NNW 20:02:23 45° NE 20:06:27 17° ESE
SL-4 R/B 3.2 19:58:49 10° W 20:02:38 39° N 20:06:11 10° ENE
BREEZE-M DEB (TANK) 2.8 20:01:09 10° W 20:03:40 58° N 20:09:32 10° ENE
BREEZE-M DEB (TANK) 4.3 20:01:00 10° W 20:04:06 15° WSW 20:06:07 10° SSW
SL-27 R/B 3.5 20:04:28 21° SE 20:05:16 24° ESE 20:07:59 10° NE
NOSS 3-2 (C) 3.3 20:00:41 10° SSW 20:06:15 61° ESE 20:12:36 10° NE
Cosmos 2242 Rocket 4.1 20:02:09 10° N 20:06:22 42° ENE 20:09:08 19° SE
Cosmos 1470 Rocket 3.5 20:02:23 10° S 20:06:44 62° E 20:11:03 10° NNE
Cosmos 2082 Rocket 3.0 20:05:20 10° SW 20:10:55 55° WNW 20:16:30 10° NNE
BREEZE-M DEB (TANK) 2.8 20:08:31 10° WNW 20:11:16 39° N 20:12:31 17° ENE
Meteor 2-20 Rocket 4.5 20:09:10 10° N 20:15:22 86° W 20:21:30 10° S
Meteor 1-4 Rocket 3.9 20:14:42 10° NNW 20:17:55 36° W 20:21:06 10° SSW
ERS-1 Rocket 4.1 20:16:14 19° ESE 20:18:46 29° ENE 20:23:03 10° N
Cosmos 2322 Rocket 2.6 20:14:12 10° NNW 20:19:45 50° ENE 20:23:15 22° SE
Cosmos 1862 Rocket 3.9 20:17:20 10° NNW 20:21:46 67° W 20:25:58 11° S
Cosmos 1850 Rocket 4.0 20:18:12 10° S 20:23:24 61° ESE 20:28:36 10° NNE
Meteor 1-25 Rocket 4.2 20:19:42 10° S 20:25:16 85° E 20:30:58 10° NNE
Cosmos 1500 4.4 20:25:36 23° E 20:25:42 23° E 20:28:42 10° NE
SPOT 1/Viking Rocket 3.9 20:23:32 23° SE 20:26:34 49° ENE 20:31:36 10° N
Cosmos 841 Rocket 4.1 20:22:17 10° N 20:27:17 43° ENE 20:29:56 25° ESE
USA 32 4.0 20:22:45 10° S 20:27:59 90° W 20:33:15 10° N
Cosmos 2360 Rocket 3.1 20:23:38 10° NNW 20:28:49 35° NE 20:31:48 21° ESE
USA 276 2.1 20:25:57 10° WNW 20:29:09 80° NNE 20:30:10 39° ESE
Terra 3.3 20:27:56 19° E 20:29:40 23° ENE 20:33:22 10° NNE
X-37B 1.0 20:26:42 10° W 20:29:45 46° SSW 20:30:22 40° SSE
Meteor 1-18 Rocket 4.1 20:24:31 10° N 20:30:06 74° ENE 20:33:52 21° SSE
ATLAS 3B R/B 3.1 20:25:33 10° S 20:31:27 36° ESE 20:37:22 10° NE
IGS 5A 3.5 20:29:39 28° SE 20:31:43 63° ENE 20:35:50 10° N
Cosmos 1238 Rocket 2.1 20:30:32 21° SSW 20:32:20 78° W 20:35:23 10° N
USA 234 4.0 20:29:00 12° E 20:34:42 47° NNE 20:40:54 10° NW
Cosmos 468 Rocket 4.1 20:31:02 10° NNW 20:36:22 80° WSW 20:39:42 23° SSE
Cosmos 1980 Rocket 3.6 20:32:35 10° NW 20:37:33 32° WSW 20:42:29 10° SSW
Cosmos 44 3.4 20:33:09 10° NNW 20:38:05 73° NE 20:40:36 30° SE
Resurs 01 Rocket 2.3 20:34:56 13° S 20:38:42 51° W 20:43:03 10° NNW
Iridium 4 Rocket 4.3 20:38:44 22° E 20:38:55 23° E 20:42:11 10° NNE
Lacrosse 5 2.1 20:34:21 10° NW 20:39:20 60° SW 20:41:50 29° SSE
Cosmos 1602 3.7 20:37:46 16° S 20:40:48 84° W 20:44:45 10° N
Cosmos 1447 Rocket 4.5 20:34:34 10° N 20:40:56 84° E 20:45:25 21° S
CARTOSAT-1 4.2 20:40:31 32° ESE 20:41:49 40° ENE 20:45:54 10° N
Cosmos 1153 Rocket 4.4 20:36:52 14° S 20:42:16 71° E 20:48:27 10° NNE
GP-B 3.5 20:40:31 10° N 20:44:55 65° W 20:48:37 14° SSW
Cosmos 1933 Rocket 3.8 20:42:59 11° SSW 20:47:17 71° W 20:51:45 10° N
Cosmos 405 Rocket 3.6 20:50:07 10° SSW 20:53:42 48° WNW 20:57:22 10° N
Spot 2 Rocket 3.5 20:51:17 28° S 20:54:06 82° WSW 20:59:13 10° NNW
COSMOS 2428 4.4 20:50:35 10° N 20:55:02 22° NE 20:57:48 16° E
Cosmos 1814 Rocket 4.2 20:49:51 10° NNW 20:55:02 59° ENE 20:56:56 37° SE
USA 238 DEB 4.5 20:49:52 10° WSW 20:56:21 52° NW 21:03:09 10° NE
USA 238 4.5 20:49:57 10° WSW 20:56:26 53° NW 21:03:15 10° NE
Cosmos 1802 Rocket 4.4 20:54:58 31° SE 20:57:26 45° E 21:03:25 10° NNE
Cosmos 1515 3.7 20:54:41 10° NNW 20:58:30 74° W 20:59:36 44° S
Cosmos 1869 Rocket 3.6 20:57:44 43° SSE 20:58:56 61° E 21:03:21 10° NNE
CENTAUR R/B 2.8 20:53:26 10° SW 20:59:23 71° NW 21:06:32 10° NE
Okean 1-7 3.0 20:56:03 10° N 21:00:23 81° W 21:01:51 40° S
Cosmos 1741 Rocket 4.3 20:57:08 10° SSW 21:02:22 68° WNW 21:07:40 10° NNE
Cosmos 1437 Rocket 3.2 21:02:31 10° NNW 21:06:15 55° W 21:07:19 39° SSW
Cosmos 1763 Rocket 4.3 21:05:27 10° NNW 21:10:33 47° WSW 21:13:14 25° SSW
Cosmos 1703 Rocket 4.0 21:06:25 10° NNW 21:10:40 56° W 21:12:20 33° SSW
H-2A R/B 4.5 21:07:06 10° N 21:11:04 45° WNW 21:14:44 12° SW
Cosmos 1570 Rocket 4.0 21:07:45 10° NNW 21:13:07 81° WSW 21:14:58 42° S
Cosmos 2333 Rocket 3.3 21:08:07 10° NNW 21:13:19 33° NE 21:15:19 26° E
ATLAS 5 CENTAUR R/B 2.8 21:10:52 10° NNW 21:13:33 42° NE 21:14:58 33° E
SPOT 5 2.5 21:17:39 62° SSE 21:18:21 81° ENE 21:22:49 10° NNW
Meteor 1-5 Rocket 4.2 21:18:36 35° S 21:21:15 79° E 21:27:09 10° NNE
Cosmos 2208 Rocket 4.0 21:19:22 10° NNW 21:24:36 78° WSW 21:25:58 50° S
Cosmos 1733 Rocket 3.9 21:29:41 38° ENE 21:29:41 38° ENE 21:33:08 10° NNE
ERBS 4.4 21:27:12 10° NNW 21:29:46 20° NNE 21:30:13 20° NNE
Meteor 1-11 Rocket 3.7 21:31:46 52° SSE 21:32:59 66° E 21:38:45 10° NNE
Cosmos 968 Rocket 4.4 21:37:25 32° ENE 21:37:25 32° ENE 21:41:00 10° NE
Lacrosse 4 Rocket 2.1 21:37:37 44° NE 21:37:37 44° NE 21:40:37 10° NE
Tsikada Rocket 4.2 21:31:09 10° N 21:37:23 57° ENE 21:38:46 48° ESE
Cosmos 2100 Rocket 4.2 21:36:57 28° SSW 21:40:21 69° W 21:46:30 10° N
USA 267 3.2 21:35:37 10° NE 21:42:11 88° NNW 21:48:45 10° SW
Meteor 2-4 Rocket 4.3 21:37:22 10° NNW 21:42:44 51° W 21:44:40 35° SSW
SL-4 R/B 2.8 21:39:10 10° WNW 21:42:47 39° N 21:42:59 39° NNE
Cosmos 540 Rocket 4.1 21:38:19 10° NNW 21:43:15 47° WSW 21:44:28 39° SW
Cosmos 2219 Rocket 2.7 21:37:46 10° NNW 21:43:17 47° ENE 21:44:23 42° E
Cosmos 2173 Rocket 4.1 21:41:11 30° SSW 21:44:20 68° W 21:50:26 10° N
SL-16 R/B 3.5 21:41:23 10° NW 21:46:18 31° WSW 21:48:19 24° SW
Cosmos 1242 Rocket 3.6 21:48:20 10° N 21:50:53 42° N 21:50:53 42° N
Meteor 1-23 Rocket 4.2 21:50:41 10° N 21:56:31 74° ENE 21:57:14 65° SE
Cosmos 2322 3.5 21:51:03 10° NNW 21:56:45 81° ENE 21:57:25 69° SE
Cosmos 1725 Rocket 3.9 21:55:18 54° S 21:56:52 86° E 22:03:14 10° N
ERS-1 Rocket 3.9 21:56:14 34° SW 21:57:24 39° W 22:02:07 10° NNW
Cosmos 1833 4.2 21:58:11 44° SW 22:00:04 78° WNW 22:05:46 10° NNE
SL-08 R/B 4.3 21:59:40 56° SSW 22:01:06 87° WNW 22:07:15 10° N
Cosmos 836 Rocket 4.5 21:56:52 10° NNW 22:02:04 68° ENE 22:02:12 67° ENE
Cosmos 1536 3.5 22:03:04 53° NNW 22:03:04 53° NNW 22:06:15 10° N
Cosmos 2322 Rocket 3.6 21:58:44 10° NW 22:03:30 28° WSW 22:05:04 24° SW
Cosmos 2016 Rocket 4.2 22:02:20 42° SSW 22:04:33 71° W 22:10:58 10° N
Cosmos 2221 Rocket 4.2 22:01:13 10° NNW 22:05:35 51° W 22:05:36 51° W
Cosmos 1378 Rocket 4.1 22:01:12 10° N 22:04:52 51° NE 22:04:52 51° NE
Terra 2.4 22:06:49 47° WSW 22:07:07 47° W 22:11:44 10° NNW
COSMOS 2487 4.4 22:12:29 28° N 22:12:29 28° N 22:14:24 10° N
Cosmos 2333 4.1 22:05:51 10° NNW 22:11:40 80° WSW 22:12:06 74° SSW
Cosmos 1666 4.0 22:12:27 38° NW 22:12:27 38° NW 22:15:24 10° N
Cosmos 2360 Rocket 2.9 22:07:34 10° NW 22:12:53 42° WSW 22:13:33 41° SW
SL-16 R/B 4.5 22:11:14 10° N 22:14:38 16° NE 22:17:41 11° ENE
USA 234 3.1 22:16:20 62° SSE 22:17:29 77° SW 22:24:03 10° NW
Iridium 4 Rocket 4.4 22:18:30 30° W 22:18:45 31° W 22:22:29 10° NNW
Lacrosse 5 4.3 22:20:20 10° WSW 22:21:01 10° WSW 22:21:01 10° WSW
ATLAS 3B R/B 3.2 22:15:25 10° WSW 22:21:53 55° NW 22:28:26 10° NNE
MOS 1-B Rocket 3.6 22:17:19 10° NNE 22:22:57 81° ESE 22:23:10 79° SE
Cosmos 1975 Rocket 4.5 22:24:12 10° N 22:27:17 31° NE 22:27:17 31° NE
Cosmos 2297 Rocket 3.9 22:32:11 19° ENE 22:32:11 19° ENE 22:34:36 10° NE
Cosmos 1743 4.3 22:35:21 33° N 22:35:21 33° N 22:37:35 10° N
Cosmos 2233 Rocket 4.0 22:34:08 65° SW 22:35:03 77° W 22:41:25 10° N
Thor Agena Rocket 3.9 22:30:49 10° NNE 22:35:03 56° NE 22:35:03 56° NE
Cosmos 1980 4.3 22:31:05 10° NNW 22:36:34 46° ENE 22:36:58 46° ENE
Timation 2 Rocket 4.5 22:39:51 43° ENE 22:39:51 43° ENE 22:44:28 10° NE
COSMOS 2428 2.7 22:34:12 10° NNW 22:39:48 77° W 22:39:48 77° W
Cosmos 44 Rocket 3.9 22:38:55 10° NW 22:42:56 54° WNW 22:42:56 54° WNW
Cosmos 2237 Rocket 2.7 22:38:51 10° NNW 22:44:21 49° ENE 22:44:34 49° ENE
Cosmos 2219 4.5 22:46:31 28° ENE 22:46:31 28° ENE 22:49:49 10° NE
Cosmos 1464 Rocket 4.3 22:46:12 52° E 22:46:12 52° E 22:51:56 10° NNE
NOSS 0 Rocket 3.8 22:45:20 10° NNW 22:51:37 81° ENE 22:51:50 80° E
Geosat 4.3 22:58:12 64° NW 22:58:12 64° NW 23:02:30 10° NNW
Cosmos 2333 Rocket 2.9 22:52:17 10° NW 22:57:19 45° W 22:57:19 45° W
Cosmos 1503 Rocket 4.2 22:58:15 68° NW 22:58:15 68° NW 23:03:17 10° NNE
Cosmos 1513 Rocket 4.4 23:07:07 78° E 23:07:08 78° E 23:13:35 10° N
DNEPR-1 R/B 4.4 23:09:19 10° NNW 23:14:43 60° NNE 23:14:43 60° NNE
ALOS 2 3.8 23:17:00 40° NNW 23:17:00 40° NNW 23:19:54 10° NNW
Lacrosse 4 Rocket 3.9 23:13:52 15° WNW 23:15:33 18° NW 23:18:26 10° N
Cosmos 773 Rocket 4.4 23:13:32 10° NNW 23:17:38 57° NNW 23:17:38 57° NNW
Cosmos 2034 Rocket 4.1 23:19:27 66° E 23:19:27 66° E 23:25:33 10° NNE
Cosmos 1072 Rocket 4.4 23:20:38 81° WNW 23:20:38 81° WNW 23:26:41 10° N
Cosmos 2227 Rocket 3.0 23:22:00 40° ENE 23:22:00 40° ENE 23:26:03 10° NE
Cosmos 1891 Rocket 4.4 23:21:57 82° WSW 23:22:05 82° W 23:28:31 10° N
USA 267 4.3 23:18:45 10° NE 23:24:50 42° NNW 23:30:54 10° W
Cosmos 2219 Rocket 3.5 23:22:07 10° NW 23:26:05 29° W 23:26:05 29° W
Cosmos 1538 Rocket 4.5 23:31:27 10° NNW 23:35:35 57° NNW 23:35:35 57° NNW
Cosmos 1607 4.0 23:40:41 10° NW 23:47:10 78° NE 23:47:26 76° E
